owner,sensor,date,latitude,longitude,air_temperature,qcFlag 
WAVCIS,ioos:station:WAVCIS:CSI06:1,2015-12-01T00:00:00Z,28.8667,-90.4833,22.9,11111222 
WAVCIS,ioos:station:WAVCIS:CSI06:1,2015-12-01T01:00:00Z,28.8667,-90.4833,23.41,11111222 
WAVCIS,ioos:station:WAVCIS:CSI06:1,2015-12-01T02:00:00Z,28.8667,-90.4833,23.87,11111222 
WAVCIS,ioos:station:WAVCIS:CSI06:1,2015-12-01T03:00:00Z,28.8667,-90.4833,24.07,11111222 
WAVCIS,ioos:station:WAVCIS:CSI06:1,2015-12-01T04:00:00Z,28.8667,-90.4833,24.22,11111222 
WAVCIS,ioos:station:WAVCIS:CSI06:1,2015-12-01T05:00:00Z,28.8667,-90.4833,24.04,11111222 
WAVCIS,ioos:station:WAVCIS:CSI06:1,2015-12-01T06:00:00Z,28.8667,-90.4833,24.05,11111222 
WAVCIS,ioos:station:WAVCIS:CSI06:1,2015-12-01T07:00:00Z,28.8667,-90.4833,23.87,11111222 
WAVCIS,ioos:station:WAVCIS:CSI06:1,2015-12-01T08:00:00Z,28.8667,-90.4833,24.26,11111222 
WAVCIS,ioos:station:WAVCIS:CSI06:1,2015-12-01T09:00:00Z,28.8667,-90.4833,24.35,11111222 
WAVCIS,ioos:station:WAVCIS:CSI06:1,2015-12-01T10:00:00Z,28.8667,-90.4833,24.55,11111222 
WAVCIS,ioos:station:WAVCIS:CSI06:1,2015-12-01T11:00:00Z,28.8667,-90.4833,24.47,11111222 
WAVCIS,ioos:station:WAVCIS:CSI06:1,2015-12-01T12:00:00Z,28.8667,-90.4833,24.58,11111222 
WAVCIS,ioos:station:WAVCIS:CSI06:1,2015-12-01T13:00:00Z,28.8667,-90.4833,24.93,11111222 
WAVCIS,ioos:station:WAVCIS:CSI06:1,2015-12-01T14:00:00Z,28.8667,-90.4833,24.92,11111222 
WAVCIS,ioos:station:WAVCIS:CSI06:1,2015-12-01T15:00:00Z,28.8667,-90.4833,25.25,11111222 
WAVCIS,ioos:station:WAVCIS:CSI06:1,2015-12-01T16:00:00Z,28.8667,-90.4833,25.95,11111222 
WAVCIS,ioos:station:WAVCIS:CSI06:1,2015-12-01T17:00:00Z,28.8667,-90.4833,26.19,11111222 
WAVCIS,ioos:station:WAVCIS:CSI06:1,2015-12-01T18:00:00Z,28.8667,-90.4833,26.51,11111222 
WAVCIS,ioos:station:WAVCIS:CSI06:1,2015-12-01T19:00:00Z,28.8667,-90.4833,26.54,11111222 
WAVCIS,ioos:station:WAVCIS:CSI06:1,2015-12-01T20:00:00Z,28.8667,-90.4833,26.3,11111222 
WAVCIS,ioos:station:WAVCIS:CSI06:1,2015-12-01T21:00:00Z,28.8667,-90.4833,26.38,11111222 
WAVCIS,ioos:station:WAVCIS:CSI06:1,2015-12-01T22:00:00Z,28.8667,-90.4833,26.2,11111222 
WAVCIS,ioos:station:WAVCIS:CSI06:1,2015-12-01T23:00:00Z,28.8667,-90.4833,25.96,11111222 
WAVCIS,ioos:station:WAVCIS:CSI06:1,2015-12-02T00:00:00Z,28.8667,-90.4833,25.91,11111222 
WAVCIS,ioos:station:WAVCIS:CSI06:1,2015-12-02T01:00:00Z,28.8667,-90.4833,25.82,11111222 
WAVCIS,ioos:station:WAVCIS:CSI06:1,2015-12-02T02:00:00Z,28.8667,-90.4833,26.02,11111222 
WAVCIS,ioos:station:WAVCIS:CSI06:1,2015-12-02T03:00:00Z,28.8667,-90.4833,26.01,11111222 
WAVCIS,ioos:station:WAVCIS:CSI06:1,2015-12-02T04:00:00Z,28.8667,-90.4833,25.13,11111222 
WAVCIS,ioos:station:WAVCIS:CSI06:1,2015-12-02T05:00:00Z,28.8667,-90.4833,24.3,11111222 
WAVCIS,ioos:station:WAVCIS:CSI06:1,2015-12-02T06:00:00Z,28.8667,-90.4833,23.27,11111222 
WAVCIS,ioos:station:WAVCIS:CSI06:1,2015-12-02T07:00:00Z,28.8667,-90.4833,23.42,11111222 
WAVCIS,ioos:station:WAVCIS:CSI06:1,2015-12-02T08:00:00Z,28.8667,-90.4833,23.9,11111222 
WAVCIS,ioos:station:WAVCIS:CSI06:1,2015-12-02T09:00:00Z,28.8667,-90.4833,23.94,11111222 
WAVCIS,ioos:station:WAVCIS:CSI06:1,2015-12-02T10:00:00Z,28.8667,-90.4833,23.33,11111222 
WAVCIS,ioos:station:WAVCIS:CSI06:1,2015-12-02T11:00:00Z,28.8667,-90.4833,22.14,11111222 
WAVCIS,ioos:station:WAVCIS:CSI06:1,2015-12-02T12:00:00Z,28.8667,-90.4833,21.54,11111222 
WAVCIS,ioos:station:WAVCIS:CSI06:1,2015-12-02T13:00:00Z,28.8667,-90.4833,20.13,11111222 
WAVCIS,ioos:station:WAVCIS:CSI06:1,2015-12-02T14:00:00Z,28.8667,-90.4833,19.63,11111222 
WAVCIS,ioos:station:WAVCIS:CSI06:1,2015-12-02T15:00:00Z,28.8667,-90.4833,19.9,11111222 
WAVCIS,ioos:station:WAVCIS:CSI06:1,2015-12-02T16:00:00Z,28.8667,-90.4833,19.87,11111222 
WAVCIS,ioos:station:WAVCIS:CSI06:1,2015-12-02T17:00:00Z,28.8667,-90.4833,19.83,11111222 
WAVCIS,ioos:station:WAVCIS:CSI06:1,2015-12-02T18:00:00Z,28.8667,-90.4833,18.16,11111222 
WAVCIS,ioos:station:WAVCIS:CSI06:1,2015-12-02T19:00:00Z,28.8667,-90.4833,19.19,11111222 
WAVCIS,ioos:station:WAVCIS:CSI06:1,2015-12-02T20:00:00Z,28.8667,-90.4833,18.81,11111222 
WAVCIS,ioos:station:WAVCIS:CSI06:1,2015-12-02T21:00:00Z,28.8667,-90.4833,18.04,11111222 
WAVCIS,ioos:station:WAVCIS:CSI06:1,2015-12-02T22:00:00Z,28.8667,-90.4833,17.64,11111222 
WAVCIS,ioos:station:WAVCIS:CSI06:1,2015-12-02T23:00:00Z,28.8667,-90.4833,18.2,11111222 
WAVCIS,ioos:station:WAVCIS:CSI06:1,2015-12-03T00:00:00Z,28.8667,-90.4833,18.27,11111222 
WAVCIS,ioos:station:WAVCIS:CSI06:1,2015-12-03T01:00:00Z,28.8667,-90.4833,18.08,11111222 
WAVCIS,ioos:station:WAVCIS:CSI06:1,2015-12-03T02:00:00Z,28.8667,-90.4833,18.33,11111222 
WAVCIS,ioos:station:WAVCIS:CSI06:1,2015-12-03T03:00:00Z,28.8667,-90.4833,18.01,11111222 
WAVCIS,ioos:station:WAVCIS:CSI06:1,2015-12-03T04:00:00Z,28.8667,-90.4833,17.69,11111222 
WAVCIS,ioos:station:WAVCIS:CSI06:1,2015-12-03T05:00:00Z,28.8667,-90.4833,17.54,11111222 
WAVCIS,ioos:station:WAVCIS:CSI06:1,2015-12-03T06:00:00Z,28.8667,-90.4833,17.13,11111222 
WAVCIS,ioos:station:WAVCIS:CSI06:1,2015-12-03T07:00:00Z,28.8667,-90.4833,17.14,11111222 
WAVCIS,ioos:station:WAVCIS:CSI06:1,2015-12-03T08:00:00Z,28.8667,-90.4833,16.83,11111222 
WAVCIS,ioos:station:WAVCIS:CSI06:1,2015-12-03T09:00:00Z,28.8667,-90.4833,16.69,11111222 
WAVCIS,ioos:station:WAVCIS:CSI06:1,2015-12-03T10:00:00Z,28.8667,-90.4833,16.28,11111222 
WAVCIS,ioos:station:WAVCIS:CSI06:1,2015-12-03T11:00:00Z,28.8667,-90.4833,15.95,11111222 
WAVCIS,ioos:station:WAVCIS:CSI06:1,2015-12-03T12:00:00Z,28.8667,-90.4833,15.77,11111222 
WAVCIS,ioos:station:WAVCIS:CSI06:1,2015-12-03T13:00:00Z,28.8667,-90.4833,15.72,11111222 
WAVCIS,ioos:station:WAVCIS:CSI06:1,2015-12-03T14:00:00Z,28.8667,-90.4833,15.24,11111222 
WAVCIS,ioos:station:WAVCIS:CSI06:1,2015-12-03T15:00:00Z,28.8667,-90.4833,14.75,11111222 
WAVCIS,ioos:station:WAVCIS:CSI06:1,2015-12-03T16:00:00Z,28.8667,-90.4833,14.34,11111222 
WAVCIS,ioos:station:WAVCIS:CSI06:1,2015-12-03T17:00:00Z,28.8667,-90.4833,13.95,11111222 
WAVCIS,ioos:station:WAVCIS:CSI06:1,2015-12-03T18:00:00Z,28.8667,-90.4833,13.92,11111222 
WAVCIS,ioos:station:WAVCIS:CSI06:1,2015-12-03T19:00:00Z,28.8667,-90.4833,13.78,11111222 
WAVCIS,ioos:station:WAVCIS:CSI06:1,2015-12-03T20:00:00Z,28.8667,-90.4833,13.86,11111222 
WAVCIS,ioos:station:WAVCIS:CSI06:1,2015-12-03T21:00:00Z,28.8667,-90.4833,13.99,11111222 
WAVCIS,ioos:station:WAVCIS:CSI06:1,2015-12-03T22:00:00Z,28.8667,-90.4833,14.1,11111222 
WAVCIS,ioos:station:WAVCIS:CSI06:1,2015-12-03T23:00:00Z,28.8667,-90.4833,14.38,11111222 
WAVCIS,ioos:station:WAVCIS:CSI06:1,2015-12-04T00:00:00Z,28.8667,-90.4833,14.22,11111222 
WAVCIS,ioos:station:WAVCIS:CSI06:1,2015-12-04T01:00:00Z,28.8667,-90.4833,14.56,11111222 
WAVCIS,ioos:station:WAVCIS:CSI06:1,2015-12-04T02:00:00Z,28.8667,-90.4833,14.73,11111222 
WAVCIS,ioos:station:WAVCIS:CSI06:1,2015-12-04T03:00:00Z,28.8667,-90.4833,14.59,11111222 
WAVCIS,ioos:station:WAVCIS:CSI06:1,2015-12-04T04:00:00Z,28.8667,-90.4833,14.51,11111222 
WAVCIS,ioos:station:WAVCIS:CSI06:1,2015-12-04T05:00:00Z,28.8667,-90.4833,14.1,11111222 
WAVCIS,ioos:station:WAVCIS:CSI06:1,2015-12-04T06:00:00Z,28.8667,-90.4833,13.85,11111222 
WAVCIS,ioos:station:WAVCIS:CSI06:1,2015-12-04T07:00:00Z,28.8667,-90.4833,13.45,11111222 
WAVCIS,ioos:station:WAVCIS:CSI06:1,2015-12-04T08:00:00Z,28.8667,-90.4833,13.3,11111222 
WAVCIS,ioos:station:WAVCIS:CSI06:1,2015-12-04T09:00:00Z,28.8667,-90.4833,12.92,11111222 
WAVCIS,ioos:station:WAVCIS:CSI06:1,2015-12-04T10:00:00Z,28.8667,-90.4833,12.72,11111222 
WAVCIS,ioos:station:WAVCIS:CSI06:1,2015-12-04T11:00:00Z,28.8667,-90.4833,12.79,11111222 
WAVCIS,ioos:station:WAVCIS:CSI06:1,2015-12-04T12:00:00Z,28.8667,-90.4833,12.58,11111222 
WAVCIS,ioos:station:WAVCIS:CSI06:1,2015-12-04T13:00:00Z,28.8667,-90.4833,12.36,11111222 
WAVCIS,ioos:station:WAVCIS:CSI06:1,2015-12-04T14:00:00Z,28.8667,-90.4833,12.78,11111222 
WAVCIS,ioos:station:WAVCIS:CSI06:1,2015-12-04T15:00:00Z,28.8667,-90.4833,12.92,11111222 
WAVCIS,ioos:station:WAVCIS:CSI06:1,2015-12-04T16:00:00Z,28.8667,-90.4833,13.04,11111222 
WAVCIS,ioos:station:WAVCIS:CSI06:1,2015-12-04T17:00:00Z,28.8667,-90.4833,13.3,11111222 
WAVCIS,ioos:station:WAVCIS:CSI06:1,2015-12-04T18:00:00Z,28.8667,-90.4833,13.68,11111222 
WAVCIS,ioos:station:WAVCIS:CSI06:1,2015-12-04T19:00:00Z,28.8667,-90.4833,14.08,11111222 
WAVCIS,ioos:station:WAVCIS:CSI06:1,2015-12-04T20:00:00Z,28.8667,-90.4833,14.68,11111222 
WAVCIS,ioos:station:WAVCIS:CSI06:1,2015-12-04T21:00:00Z,28.8667,-90.4833,15.23,11111222 
WAVCIS,ioos:station:WAVCIS:CSI06:1,2015-12-04T22:00:00Z,28.8667,-90.4833,15.76,11111222 
WAVCIS,ioos:station:WAVCIS:CSI06:1,2015-12-04T23:00:00Z,28.8667,-90.4833,15.72,11111222 
WAVCIS,ioos:station:WAVCIS:CSI06:1,2015-12-05T00:00:00Z,28.8667,-90.4833,15.9,11111222 
WAVCIS,ioos:station:WAVCIS:CSI06:1,2015-12-05T01:00:00Z,28.8667,-90.4833,16.02,11111222 
WAVCIS,ioos:station:WAVCIS:CSI06:1,2015-12-05T02:00:00Z,28.8667,-90.4833,16.26,11111222 
WAVCIS,ioos:station:WAVCIS:CSI06:1,2015-12-05T03:00:00Z,28.8667,-90.4833,16.42,11111222 
WAVCIS,ioos:station:WAVCIS:CSI06:1,2015-12-05T04:00:00Z,28.8667,-90.4833,16.59,11111222 
WAVCIS,ioos:station:WAVCIS:CSI06:1,2015-12-05T05:00:00Z,28.8667,-90.4833,16.5,11111222 
WAVCIS,ioos:station:WAVCIS:CSI06:1,2015-12-05T06:00:00Z,28.8667,-90.4833,16.37,11111222 
WAVCIS,ioos:station:WAVCIS:CSI06:1,2015-12-05T07:00:00Z,28.8667,-90.4833,16.37,11111222 
WAVCIS,ioos:station:WAVCIS:CSI06:1,2015-12-05T08:00:00Z,28.8667,-90.4833,16.37,11111222 
WAVCIS,ioos:station:WAVCIS:CSI06:1,2015-12-05T09:00:00Z,28.8667,-90.4833,16.39,11111222 
WAVCIS,ioos:station:WAVCIS:CSI06:1,2015-12-05T10:00:00Z,28.8667,-90.4833,16.52,11111222 
WAVCIS,ioos:station:WAVCIS:CSI06:1,2015-12-05T11:00:00Z,28.8667,-90.4833,16.27,11111222 
WAVCIS,ioos:station:WAVCIS:CSI06:1,2015-12-05T12:00:00Z,28.8667,-90.4833,16.35,11111222 
WAVCIS,ioos:station:WAVCIS:CSI06:1,2015-12-05T13:00:00Z,28.8667,-90.4833,16.48,11111222 
WAVCIS,ioos:station:WAVCIS:CSI06:1,2015-12-05T14:00:00Z,28.8667,-90.4833,16.54,11111222 
WAVCIS,ioos:station:WAVCIS:CSI06:1,2015-12-05T15:00:00Z,28.8667,-90.4833,16.84,11111222 
WAVCIS,ioos:station:WAVCIS:CSI06:1,2015-12-05T16:00:00Z,28.8667,-90.4833,17.25,11111222 
WAVCIS,ioos:station:WAVCIS:CSI06:1,2015-12-05T17:00:00Z,28.8667,-90.4833,18.15,11111222 
WAVCIS,ioos:station:WAVCIS:CSI06:1,2015-12-05T18:00:00Z,28.8667,-90.4833,18.25,11111222 
WAVCIS,ioos:station:WAVCIS:CSI06:1,2015-12-05T19:00:00Z,28.8667,-90.4833,18.66,11111222 
WAVCIS,ioos:station:WAVCIS:CSI06:1,2015-12-05T20:00:00Z,28.8667,-90.4833,19.28,11111222 
WAVCIS,ioos:station:WAVCIS:CSI06:1,2015-12-05T21:00:00Z,28.8667,-90.4833,19.6,11111222 
WAVCIS,ioos:station:WAVCIS:CSI06:1,2015-12-05T22:00:00Z,28.8667,-90.4833,19.69,11111222 
WAVCIS,ioos:station:WAVCIS:CSI06:1,2015-12-05T23:00:00Z,28.8667,-90.4833,19.22,11111222 
WAVCIS,ioos:station:WAVCIS:CSI06:1,2015-12-06T00:00:00Z,28.8667,-90.4833,19.34,11111222 
WAVCIS,ioos:station:WAVCIS:CSI06:1,2015-12-06T01:00:00Z,28.8667,-90.4833,19.53,11111222 
WAVCIS,ioos:station:WAVCIS:CSI06:1,2015-12-06T02:00:00Z,28.8667,-90.4833,19.47,11111222 
WAVCIS,ioos:station:WAVCIS:CSI06:1,2015-12-06T03:00:00Z,28.8667,-90.4833,19.65,11111222 
WAVCIS,ioos:station:WAVCIS:CSI06:1,2015-12-06T04:00:00Z,28.8667,-90.4833,20.34,11111222 
WAVCIS,ioos:station:WAVCIS:CSI06:1,2015-12-06T05:00:00Z,28.8667,-90.4833,20.77,11111222 
WAVCIS,ioos:station:WAVCIS:CSI06:1,2015-12-06T06:00:00Z,28.8667,-90.4833,20.46,11111222 
WAVCIS,ioos:station:WAVCIS:CSI06:1,2015-12-06T07:00:00Z,28.8667,-90.4833,20.23,11111222 
WAVCIS,ioos:station:WAVCIS:CSI06:1,2015-12-06T08:00:00Z,28.8667,-90.4833,19.49,11111222 
WAVCIS,ioos:station:WAVCIS:CSI06:1,2015-12-06T09:00:00Z,28.8667,-90.4833,19.36,11111222 
WAVCIS,ioos:station:WAVCIS:CSI06:1,2015-12-06T10:00:00Z,28.8667,-90.4833,19.29,11111222 
WAVCIS,ioos:station:WAVCIS:CSI06:1,2015-12-06T11:00:00Z,28.8667,-90.4833,19.65,11111222 
WAVCIS,ioos:station:WAVCIS:CSI06:1,2015-12-06T12:00:00Z,28.8667,-90.4833,19.69,11111222 
WAVCIS,ioos:station:WAVCIS:CSI06:1,2015-12-06T13:00:00Z,28.8667,-90.4833,19.45,11111222 
WAVCIS,ioos:station:WAVCIS:CSI06:1,2015-12-06T14:00:00Z,28.8667,-90.4833,19.51,11111222 
WAVCIS,ioos:station:WAVCIS:CSI06:1,2015-12-06T15:00:00Z,28.8667,-90.4833,19.32,11111222 
WAVCIS,ioos:station:WAVCIS:CSI06:1,2015-12-06T16:00:00Z,28.8667,-90.4833,19.36,11111222 
WAVCIS,ioos:station:WAVCIS:CSI06:1,2015-12-06T17:00:00Z,28.8667,-90.4833,20.32,11111222 
WAVCIS,ioos:station:WAVCIS:CSI06:1,2015-12-06T18:00:00Z,28.8667,-90.4833,20.24,11111222 
WAVCIS,ioos:station:WAVCIS:CSI06:1,2015-12-06T19:00:00Z,28.8667,-90.4833,20.37,11111222 
WAVCIS,ioos:station:WAVCIS:CSI06:1,2015-12-06T20:00:00Z,28.8667,-90.4833,20.46,11111222 
WAVCIS,ioos:station:WAVCIS:CSI06:1,2015-12-06T21:00:00Z,28.8667,-90.4833,21.16,11111222 
WAVCIS,ioos:station:WAVCIS:CSI06:1,2015-12-06T22:00:00Z,28.8667,-90.4833,21.15,11111222 
WAVCIS,ioos:station:WAVCIS:CSI06:1,2015-12-06T23:00:00Z,28.8667,-90.4833,21.06,11111222 
WAVCIS,ioos:station:WAVCIS:CSI06:1,2015-12-07T00:00:00Z,28.8667,-90.4833,20.59,11111222 
WAVCIS,ioos:station:WAVCIS:CSI06:1,2015-12-07T01:00:00Z,28.8667,-90.4833,20.6,11111222 
WAVCIS,ioos:station:WAVCIS:CSI06:1,2015-12-07T02:00:00Z,28.8667,-90.4833,20.75,11111222 
WAVCIS,ioos:station:WAVCIS:CSI06:1,2015-12-07T03:00:00Z,28.8667,-90.4833,20.7,11111222 
WAVCIS,ioos:station:WAVCIS:CSI06:1,2015-12-07T04:00:00Z,28.8667,-90.4833,20.76,11111222 
WAVCIS,ioos:station:WAVCIS:CSI06:1,2015-12-07T05:00:00Z,28.8667,-90.4833,20.8,11111222 
WAVCIS,ioos:station:WAVCIS:CSI06:1,2015-12-07T06:00:00Z,28.8667,-90.4833,21.54,11111222 
WAVCIS,ioos:station:WAVCIS:CSI06:1,2015-12-07T07:00:00Z,28.8667,-90.4833,20.77,11111222 
WAVCIS,ioos:station:WAVCIS:CSI06:1,2015-12-07T08:00:00Z,28.8667,-90.4833,19.99,11111222 
WAVCIS,ioos:station:WAVCIS:CSI06:1,2015-12-07T09:00:00Z,28.8667,-90.4833,19.36,11111222 
WAVCIS,ioos:station:WAVCIS:CSI06:1,2015-12-07T10:00:00Z,28.8667,-90.4833,19.25,11111222 
WAVCIS,ioos:station:WAVCIS:CSI06:1,2015-12-07T11:00:00Z,28.8667,-90.4833,18.68,11111222 
WAVCIS,ioos:station:WAVCIS:CSI06:1,2015-12-07T12:00:00Z,28.8667,-90.4833,18.86,11111222 
WAVCIS,ioos:station:WAVCIS:CSI06:1,2015-12-07T13:00:00Z,28.8667,-90.4833,18.55,11111222 
WAVCIS,ioos:station:WAVCIS:CSI06:1,2015-12-07T14:00:00Z,28.8667,-90.4833,18.9,11111222 
WAVCIS,ioos:station:WAVCIS:CSI06:1,2015-12-07T15:00:00Z,28.8667,-90.4833,19.32,11111222 
WAVCIS,ioos:station:WAVCIS:CSI06:1,2015-12-07T16:00:00Z,28.8667,-90.4833,19.65,11111222 
WAVCIS,ioos:station:WAVCIS:CSI06:1,2015-12-07T17:00:00Z,28.8667,-90.4833,19.25,11111222 
WAVCIS,ioos:station:WAVCIS:CSI06:1,2015-12-07T18:00:00Z,28.8667,-90.4833,19.7,11111222 
WAVCIS,ioos:station:WAVCIS:CSI06:1,2015-12-07T19:00:00Z,28.8667,-90.4833,20.38,11111222 
WAVCIS,ioos:station:WAVCIS:CSI06:1,2015-12-07T20:00:00Z,28.8667,-90.4833,21.05,11111222 
WAVCIS,ioos:station:WAVCIS:CSI06:1,2015-12-07T21:00:00Z,28.8667,-90.4833,21.45,11111222 
WAVCIS,ioos:station:WAVCIS:CSI06:1,2015-12-07T22:00:00Z,28.8667,-90.4833,21.89,11111222 
WAVCIS,ioos:station:WAVCIS:CSI06:1,2015-12-07T23:00:00Z,28.8667,-90.4833,21.64,11111222 
WAVCIS,ioos:station:WAVCIS:CSI06:1,2015-12-08T00:00:00Z,28.8667,-90.4833,21.31,11111222 
WAVCIS,ioos:station:WAVCIS:CSI06:1,2015-12-08T01:00:00Z,28.8667,-90.4833,20.96,11111222 
WAVCIS,ioos:station:WAVCIS:CSI06:1,2015-12-08T02:00:00Z,28.8667,-90.4833,21.51,11111222 
WAVCIS,ioos:station:WAVCIS:CSI06:1,2015-12-08T03:00:00Z,28.8667,-90.4833,20.87,11111222 
WAVCIS,ioos:station:WAVCIS:CSI06:1,2015-12-08T04:00:00Z,28.8667,-90.4833,21.05,11111222 
WAVCIS,ioos:station:WAVCIS:CSI06:1,2015-12-08T05:00:00Z,28.8667,-90.4833,21.0,11111222 
WAVCIS,ioos:station:WAVCIS:CSI06:1,2015-12-08T06:00:00Z,28.8667,-90.4833,20.82,11111222 
WAVCIS,ioos:station:WAVCIS:CSI06:1,2015-12-08T07:00:00Z,28.8667,-90.4833,19.79,11111222 
WAVCIS,ioos:station:WAVCIS:CSI06:1,2015-12-08T08:00:00Z,28.8667,-90.4833,20.54,11111222 
WAVCIS,ioos:station:WAVCIS:CSI06:1,2015-12-08T09:00:00Z,28.8667,-90.4833,19.54,11111222 
WAVCIS,ioos:station:WAVCIS:CSI06:1,2015-12-08T10:00:00Z,28.8667,-90.4833,19.41,11111222 
WAVCIS,ioos:station:WAVCIS:CSI06:1,2015-12-08T11:00:00Z,28.8667,-90.4833,19.48,11111222 
WAVCIS,ioos:station:WAVCIS:CSI06:1,2015-12-08T12:00:00Z,28.8667,-90.4833,20.14,11111222 
WAVCIS,ioos:station:WAVCIS:CSI06:1,2015-12-08T13:00:00Z,28.8667,-90.4833,19.73,11111222 
WAVCIS,ioos:station:WAVCIS:CSI06:1,2015-12-08T14:00:00Z,28.8667,-90.4833,20.89,11111222 
WAVCIS,ioos:station:WAVCIS:CSI06:1,2015-12-08T15:00:00Z,28.8667,-90.4833,20.71,11111222 
WAVCIS,ioos:station:WAVCIS:CSI06:1,2015-12-08T16:00:00Z,28.8667,-90.4833,20.22,11111222 
WAVCIS,ioos:station:WAVCIS:CSI06:1,2015-12-08T17:00:00Z,28.8667,-90.4833,20.21,11111222 
WAVCIS,ioos:station:WAVCIS:CSI06:1,2015-12-08T18:00:00Z,28.8667,-90.4833,21.29,11111222 
WAVCIS,ioos:station:WAVCIS:CSI06:1,2015-12-08T19:00:00Z,28.8667,-90.4833,21.84,11111222 
WAVCIS,ioos:station:WAVCIS:CSI06:1,2015-12-08T20:00:00Z,28.8667,-90.4833,21.03,11111222 
WAVCIS,ioos:station:WAVCIS:CSI06:1,2015-12-08T21:00:00Z,28.8667,-90.4833,21.24,11111222 
WAVCIS,ioos:station:WAVCIS:CSI06:1,2015-12-08T22:00:00Z,28.8667,-90.4833,22.18,11111222 
WAVCIS,ioos:station:WAVCIS:CSI06:1,2015-12-08T23:00:00Z,28.8667,-90.4833,21.04,11111222 
WAVCIS,ioos:station:WAVCIS:CSI06:1,2015-12-09T00:00:00Z,28.8667,-90.4833,20.66,11111222 
WAVCIS,ioos:station:WAVCIS:CSI06:1,2015-12-09T01:00:00Z,28.8667,-90.4833,20.63,11111222 
WAVCIS,ioos:station:WAVCIS:CSI06:1,2015-12-09T02:00:00Z,28.8667,-90.4833,20.71,11111222 
WAVCIS,ioos:station:WAVCIS:CSI06:1,2015-12-09T03:00:00Z,28.8667,-90.4833,21.2,11111222 
WAVCIS,ioos:station:WAVCIS:CSI06:1,2015-12-09T04:00:00Z,28.8667,-90.4833,21.46,11111222 
WAVCIS,ioos:station:WAVCIS:CSI06:1,2015-12-09T05:00:00Z,28.8667,-90.4833,22.18,11111222 
WAVCIS,ioos:station:WAVCIS:CSI06:1,2015-12-09T06:00:00Z,28.8667,-90.4833,22.66,11111222 
WAVCIS,ioos:station:WAVCIS:CSI06:1,2015-12-09T07:00:00Z,28.8667,-90.4833,22.85,11111222 
WAVCIS,ioos:station:WAVCIS:CSI06:1,2015-12-09T08:00:00Z,28.8667,-90.4833,22.98,11111222 
WAVCIS,ioos:station:WAVCIS:CSI06:1,2015-12-09T09:00:00Z,28.8667,-90.4833,23.25,11111222 
WAVCIS,ioos:station:WAVCIS:CSI06:1,2015-12-09T10:00:00Z,28.8667,-90.4833,23.63,11111222 
WAVCIS,ioos:station:WAVCIS:CSI06:1,2015-12-09T11:00:00Z,28.8667,-90.4833,23.91,11111222 
WAVCIS,ioos:station:WAVCIS:CSI06:1,2015-12-09T12:00:00Z,28.8667,-90.4833,24.14,11111222 
WAVCIS,ioos:station:WAVCIS:CSI06:1,2015-12-09T13:00:00Z,28.8667,-90.4833,24.24,11111222 
WAVCIS,ioos:station:WAVCIS:CSI06:1,2015-12-09T14:00:00Z,28.8667,-90.4833,23.58,11111222 
WAVCIS,ioos:station:WAVCIS:CSI06:1,2015-12-09T15:00:00Z,28.8667,-90.4833,24.12,11111222 
WAVCIS,ioos:station:WAVCIS:CSI06:1,2015-12-09T16:00:00Z,28.8667,-90.4833,24.45,11111222 
WAVCIS,ioos:station:WAVCIS:CSI06:1,2015-12-09T17:00:00Z,28.8667,-90.4833,26.18,11111222 
WAVCIS,ioos:station:WAVCIS:CSI06:1,2015-12-09T18:00:00Z,28.8667,-90.4833,24.83,11111222 
WAVCIS,ioos:station:WAVCIS:CSI06:1,2015-12-09T19:00:00Z,28.8667,-90.4833,26.79,11111222 
WAVCIS,ioos:station:WAVCIS:CSI06:1,2015-12-09T20:00:00Z,28.8667,-90.4833,27.01,11111222 
WAVCIS,ioos:station:WAVCIS:CSI06:1,2015-12-09T21:00:00Z,28.8667,-90.4833,23.79,11111222 
WAVCIS,ioos:station:WAVCIS:CSI06:1,2015-12-09T22:00:00Z,28.8667,-90.4833,24.05,11111222 
WAVCIS,ioos:station:WAVCIS:CSI06:1,2015-12-09T23:00:00Z,28.8667,-90.4833,24.2,11111222 
WAVCIS,ioos:station:WAVCIS:CSI06:1,2015-12-10T00:00:00Z,28.8667,-90.4833,23.51,11111222 
WAVCIS,ioos:station:WAVCIS:CSI06:1,2015-12-10T01:00:00Z,28.8667,-90.4833,23.28,11111222 
WAVCIS,ioos:station:WAVCIS:CSI06:1,2015-12-10T02:00:00Z,28.8667,-90.4833,22.9,11111222 
WAVCIS,ioos:station:WAVCIS:CSI06:1,2015-12-10T03:00:00Z,28.8667,-90.4833,23.19,11111222 
WAVCIS,ioos:station:WAVCIS:CSI06:1,2015-12-10T04:00:00Z,28.8667,-90.4833,23.37,11111222 
WAVCIS,ioos:station:WAVCIS:CSI06:1,2015-12-10T05:00:00Z,28.8667,-90.4833,23.44,11111222 
WAVCIS,ioos:station:WAVCIS:CSI06:1,2015-12-10T06:00:00Z,28.8667,-90.4833,23.44,11111222 
WAVCIS,ioos:station:WAVCIS:CSI06:1,2015-12-10T07:00:00Z,28.8667,-90.4833,23.48,11111222 
WAVCIS,ioos:station:WAVCIS:CSI06:1,2015-12-10T08:00:00Z,28.8667,-90.4833,23.54,11111222 
WAVCIS,ioos:station:WAVCIS:CSI06:1,2015-12-10T09:00:00Z,28.8667,-90.4833,23.64,11111222 
WAVCIS,ioos:station:WAVCIS:CSI06:1,2015-12-10T10:00:00Z,28.8667,-90.4833,23.72,11111222 
WAVCIS,ioos:station:WAVCIS:CSI06:1,2015-12-10T11:00:00Z,28.8667,-90.4833,24.01,11111222 
WAVCIS,ioos:station:WAVCIS:CSI06:1,2015-12-10T12:00:00Z,28.8667,-90.4833,24.48,11111222 
WAVCIS,ioos:station:WAVCIS:CSI06:1,2015-12-10T13:00:00Z,28.8667,-90.4833,25.07,11111222 
WAVCIS,ioos:station:WAVCIS:CSI06:1,2015-12-10T14:00:00Z,28.8667,-90.4833,24.36,11111222 
WAVCIS,ioos:station:WAVCIS:CSI06:1,2015-12-10T15:00:00Z,28.8667,-90.4833,24.84,11111222 
WAVCIS,ioos:station:WAVCIS:CSI06:1,2015-12-10T16:00:00Z,28.8667,-90.4833,25.44,11111222 
WAVCIS,ioos:station:WAVCIS:CSI06:1,2015-12-10T17:00:00Z,28.8667,-90.4833,25.43,11111222 
WAVCIS,ioos:station:WAVCIS:CSI06:1,2015-12-10T18:00:00Z,28.8667,-90.4833,25.66,11111222 
WAVCIS,ioos:station:WAVCIS:CSI06:1,2015-12-10T19:00:00Z,28.8667,-90.4833,25.54,11111222 
WAVCIS,ioos:station:WAVCIS:CSI06:1,2015-12-10T20:00:00Z,28.8667,-90.4833,25.54,11111222 
WAVCIS,ioos:station:WAVCIS:CSI06:1,2015-12-10T21:00:00Z,28.8667,-90.4833,25.71,11111222 
WAVCIS,ioos:station:WAVCIS:CSI06:1,2015-12-10T22:00:00Z,28.8667,-90.4833,25.71,11111222 
WAVCIS,ioos:station:WAVCIS:CSI06:1,2015-12-10T23:00:00Z,28.8667,-90.4833,25.42,11111222 
WAVCIS,ioos:station:WAVCIS:CSI06:1,2015-12-11T00:00:00Z,28.8667,-90.4833,25.43,11111222 
WAVCIS,ioos:station:WAVCIS:CSI06:1,2015-12-11T01:00:00Z,28.8667,-90.4833,25.49,11111222 
WAVCIS,ioos:station:WAVCIS:CSI06:1,2015-12-11T02:00:00Z,28.8667,-90.4833,25.57,11111222 
WAVCIS,ioos:station:WAVCIS:CSI06:1,2015-12-11T03:00:00Z,28.8667,-90.4833,25.62,11111222 
WAVCIS,ioos:station:WAVCIS:CSI06:1,2015-12-11T04:00:00Z,28.8667,-90.4833,25.7,11111222 
WAVCIS,ioos:station:WAVCIS:CSI06:1,2015-12-11T05:00:00Z,28.8667,-90.4833,25.72,11111222 
WAVCIS,ioos:station:WAVCIS:CSI06:1,2015-12-11T06:00:00Z,28.8667,-90.4833,25.56,11111222 
WAVCIS,ioos:station:WAVCIS:CSI06:1,2015-12-11T07:00:00Z,28.8667,-90.4833,25.59,11111222 
WAVCIS,ioos:station:WAVCIS:CSI06:1,2015-12-11T08:00:00Z,28.8667,-90.4833,25.57,11111222 
WAVCIS,ioos:station:WAVCIS:CSI06:1,2015-12-11T09:00:00Z,28.8667,-90.4833,25.5,11111222 
WAVCIS,ioos:station:WAVCIS:CSI06:1,2015-12-11T10:00:00Z,28.8667,-90.4833,25.38,11111222 
WAVCIS,ioos:station:WAVCIS:CSI06:1,2015-12-11T11:00:00Z,28.8667,-90.4833,25.45,11111222 
WAVCIS,ioos:station:WAVCIS:CSI06:1,2015-12-11T12:00:00Z,28.8667,-90.4833,25.51,11111222 
WAVCIS,ioos:station:WAVCIS:CSI06:1,2015-12-11T13:00:00Z,28.8667,-90.4833,25.5,11111222 
WAVCIS,ioos:station:WAVCIS:CSI06:1,2015-12-11T14:00:00Z,28.8667,-90.4833,25.88,11111222 
WAVCIS,ioos:station:WAVCIS:CSI06:1,2015-12-11T15:00:00Z,28.8667,-90.4833,26.04,11111222 
WAVCIS,ioos:station:WAVCIS:CSI06:1,2015-12-11T16:00:00Z,28.8667,-90.4833,26.08,11111222 
WAVCIS,ioos:station:WAVCIS:CSI06:1,2015-12-11T17:00:00Z,28.8667,-90.4833,26.02,11111222 
WAVCIS,ioos:station:WAVCIS:CSI06:1,2015-12-11T18:00:00Z,28.8667,-90.4833,25.92,11111222 
WAVCIS,ioos:station:WAVCIS:CSI06:1,2015-12-11T19:00:00Z,28.8667,-90.4833,25.63,11111222 
WAVCIS,ioos:station:WAVCIS:CSI06:1,2015-12-11T20:00:00Z,28.8667,-90.4833,26.03,11111222 
WAVCIS,ioos:station:WAVCIS:CSI06:1,2015-12-11T21:00:00Z,28.8667,-90.4833,26.19,11111222 
WAVCIS,ioos:station:WAVCIS:CSI06:1,2015-12-11T22:00:00Z,28.8667,-90.4833,26.14,11111222 
WAVCIS,ioos:station:WAVCIS:CSI06:1,2015-12-11T23:00:00Z,28.8667,-90.4833,25.27,11111222 
WAVCIS,ioos:station:WAVCIS:CSI06:1,2015-12-12T00:00:00Z,28.8667,-90.4833,25.67,11111222 
WAVCIS,ioos:station:WAVCIS:CSI06:1,2015-12-12T01:00:00Z,28.8667,-90.4833,24.83,11111222 
WAVCIS,ioos:station:WAVCIS:CSI06:1,2015-12-12T02:00:00Z,28.8667,-90.4833,25.06,11111222 
WAVCIS,ioos:station:WAVCIS:CSI06:1,2015-12-12T03:00:00Z,28.8667,-90.4833,25.11,11111222 
WAVCIS,ioos:station:WAVCIS:CSI06:1,2015-12-12T04:00:00Z,28.8667,-90.4833,25.08,11111222 